Regional Weather Roundup
Issued by NWS

Home | Current Version | Previous Version | Graphics & Text | Print | Product List | Glossary On
Versions: 1 2 3 4 5 6 7 8 9 10 11 12 13 14 15 16 17 18 19 20 21 22 23 24 25 26 27 28 29 30 31 32 33 34 35 36 37 38 39 40 41 42 43 44 45 46 47 48 49 50
000
ASUS43 KTOP 200159
RWRKS

WEATHER ROUNDUP FOR KANSAS
NATIONAL WEATHER SERVICE GOODLAND KS
800 PM CST SUN NOV 19 2017

NOTE:  "FAIR" INDICATES FEW OR NO CLOUDS BELOW 12,000 FEET WITH NO
SIGNIFICANT WEATHER AND/OR OBSTRUCTIONS TO VISIBILITY.

KSZ001>006-013>018-027>032-041>047-200300-
NORTHWEST KANSAS

CITY           SKY/WX    TMP DP  RH WIND       PRES   REMARKS
GOODLAND       CLOUDY    46  16  30 S14       29.94F
HAYS           CLOUDY    42  24  49 SW5       29.99F
HILL CITY      CLEAR     46  25  43 SW5       29.97F
RUSSELL        CLOUDY    43  23  45 S12       29.98F
$$

KSZ061>065-074>080-084>089-200300-
SOUTHWEST KANSAS

CITY           SKY/WX    TMP DP  RH WIND       PRES   REMARKS
DODGE CITY     CLEAR     42  18  37 S9        30.02F
GARDEN CITY    CLOUDY    41  18  39 S8        30.00F
GREAT BEND     CLOUDY    47  21  35 S12       30.01F
LIBERAL        CLEAR     43  19  38 S14       30.03F
$$

KSZ066>073-081>083-090>101-200300-
SOUTHEAST KANSAS

CITY           SKY/WX    TMP DP  RH WIND       PRES   REMARKS
CHANUTE        CLOUDY    41  30  65 S8        30.14F
COFFEYVILLE    CLOUDY    43  29  57 S8        30.16F
HUTCHINSON     CLOUDY    49  24  37 S12       30.05F
MEDICINE LODGE   N/A     46  22  38 S10       30.07S
NEWTON         CLOUDY    43  23  45 S12       30.07F
PARSONS        CLOUDY    44  29  55 S5        30.16F
WICHITA INTL   CLOUDY    47  25  42 S13       30.08F
WICHITA JABRA  CLOUDY    46  25  43 S12       30.07F
WICHITA MCCONL CLOUDY    49  22  35 SW14      30.08F
WINFIELD       CLOUDY    42  26  53 S9        30.13S
$$

KSZ007>012-019>026-033>040-048>060-102>105-200300-
NORTHEAST KANSAS

CITY           SKY/WX    TMP DP  RH WIND       PRES   REMARKS
CONCORDIA      CLOUDY    48  21  34 S17       29.98F
EMPORIA        CLOUDY    43  24  47 S12       30.08F
LAWRENCE       CLEAR     45  31  58 S9        30.08F
MANHATTAN      CLEAR     44  23  43 SW8       30.04F
OLATHE IND     CLEAR     43  31  62 S10       30.10F
OLATHE EXE     CLEAR     42  30  62 S8        30.10S
SALINA         CLOUDY    45  24  43 S10       30.02F
TOPEKA BILLARD CLEAR     47  25  42 S9        30.06F
TOPEKA FORBES  CLEAR     47  26  44 S12       30.06F
$$




USA.gov is the U.S. government's official web portal to all federal, state and local government web resources and services.